Location: Courçay
(47.2523°N, 0.8761°E)
Time: 21:13:43
(UTC+00:00)

CZ-2D R/B - Pass Details

Date: 18 November 2025
Orbit: 525 x 597 km, 98.0° (Epoch: 10 December)

Event Time Altitude Azimuth Distance (km) Brightness Sun altitude
Rises 17:44:44 0° 153° (SSE) 2,789 6.8 -14.6°
Reaches altitude 10° 17:46:53 10° 148° (SSE) 1,904 5.9 -15.0°
Maximum altitude 17:50:55 54° 72° (ENE) 725 3.5 -15.6°
Drops below altitude 10° 17:55:03 10° 355° (N) 1,945 6.0 -16.3°
Sets 17:57:16 0° 351° (N) 2,856 7.0 -16.7°
